GW7242 Weather Reports


time (UTC)temp
C
wind
direction
speed
KPH
gust
KPH
rain 1hr
cm
rain 24hr
cm
rain mn
cm
humidity
%
barometer
mb
20260507211049 18 87 0.0 0.0 0.00 0.03 0.03 57 1008.1
20260507201049 19 251 3.2 6.4 0.00 0.03 0.03 55 1008.8
20260507191049 18 157 1.6 1.6 0.00 0.03 0.03 59 1009.4
20260507181048 17 130 3.2 4.8 0.00 0.03 0.03 57 1010.1
20260507171045 13 89 1.6 3.2 0.00 0.03 0.03 70 1011.1
20260507161046 13 148 0.0 1.6 0.00 0.03 0.03 73 1011.7
20260507151045 11 90 1.6 1.6 0.00 0.03 0.03 77 1012.2
20260507141040 11 78 0.0 0.0 0.00 0.03 0.03 83 1012.8
20260507131036 11 83 1.6 3.2 0.00 0.03 0.03 81 1013.0
20260507121032 11 83 1.6 1.6 0.00 0.03 0.03 83 1012.8
20260507111028 11 83 0.0 0.0 0.00 0.03 0.03 87 1012.6
20260507101027 11 58 1.6 1.6 0.00 0.03 0.03 89 1012.1
20260507091027 11 66 1.6 3.2 0.00 0.03 0.03 90 1011.7
20260507081027 11 42 6.4 6.4 0.00 0.03 0.03 89 1011.5
20260507071024 12 64 3.2 3.2 0.00 0.03 0.03 90 1010.9
20260507061020 13 70 3.2 3.2 0.00 0.03 0.03 92 1010.9
20260507051017 14 86 0.0 1.6 0.00 0.03 0.03 95 1010.5
20260507041017 15 80 1.6 1.6 0.13 0.03 0.03 95 1010.7
20260507031014 16 100 0.0 0.0 0.30 0.91 0.91 94 1010.5
20260507021010 17 80 0.0 1.6 1.02 0.33 0.33 85 1010.1
20260507011007 19 111 0.0 0.0 0.00 0.15 0.15 78 1009.5
20260507001006 21 231 3.2 3.2 0.00 0.15 0.15 71 1009.2
20260506231002 22 321 6.4 9.7 0.00 0.15 0.15 67 1008.8
20260506220958 22 105 1.6 3.2 0.00 0.15 0.15 65 1008.3